Miscellaneous Local Product
Issued by NWS North Platte, NE

Home | Current Version | Previous Version | Text Only | Print | Product List | Glossary On
Versions: 1 2 3 4 5 6 7 8 9 10 11 12 13 14 15 16 17 18 19 20 21 22 23 24 25 26 27 28 29 30 31 32 33 34 35 36 37 38 39 40 41 42 43 44 45 46 47 48 49 50
255
AXUS43 KLBF 291910
MISLBF


WESTERN AND NORTH CENTRAL NEBRASKA HOURLY WEATHER ROUNDUP
NATIONAL WEATHER SERVICE NORTH PLATTE NE
200 PM CDT WED MAR 29 2017

NOTE: "FAIR" INDICATES FEW OR NO CLOUDS BELOW 12,000 FEET WITH NO
SIGNIFICANT WEATHER AND/OR OBSTRUCTIONS TO VISIBILITY.

NOTE: STATIONS NOT REPORTING VARIABLES SUCH AS SKY/WEATHER OR
PRESSURE ARE PROVIDED BY RAWS AND APRS NETWORKS AND ARE NOT UNDER
NATIONAL WEATHER SERVICE QUALITY CONTROL.

...OBSERVATIONS IN AND NEAR THE EASTERN PANHANDLE OF NEBRASKA...

CITY           SKY/WX    TMP DP  RH WIND       PRES   REMARKS
PINE RIDGE     CLOUDY    53  42  66 E6        30.05F
CHADRON        CLOUDY    52  41  66 NE5       30.05F
ALLIANCE       CLOUDY    47  38  71 N14       30.03F
SIDNEY         CLOUDY    46  38  73 N14       30.03F
CRESCENT LAKE    N/A     49  40  72 N10         N/A
$$

...OBSERVATIONS IN NORTHERN NEBRASKA AND FAR SOUTHERN SOUTH DAKOTA...

CITY           SKY/WX    TMP DP  RH WIND       PRES   REMARKS
WINNER         PTSUNNY   56  42  59 E8        30.05F
VALENTINE      CLOUDY    52  37  56 N13       30.04F
THEDFORD       CLOUDY    49  40  71 NE15G23   30.01F
AINSWORTH      CLOUDY    47  43  86 NE14      30.03F
O`NEILL        CLOUDY    45  42  91 NE18      30.03F
ORD            CLOUDY    44  39  82 NE22G28   29.96F
BROKEN BOW     CLOUDY    45  39  79 N18G26    29.96F
VALENTINE NWR    N/A     47  40  77 N9G16       N/A
HALSEY           N/A     46  42  86 N8          N/A
BUTTE            N/A     46  39  78 NE17G24     N/A
CHAMBERS         N/A     45  42  89 NE7         N/A
EWING            N/A     44  41  90 NE9G17      N/A
$$

...OBSERVATIONS IN SOUTHWEST NEBRASKA AND FAR NORTHEAST COLORADO...

CITY           SKY/WX    TMP DP  RH WIND       PRES   REMARKS
HOLYOKE        MOCLDY    46  41  81 N20G26    30.01F
IMPERIAL       CLOUDY    46  38  73 N23G29    29.98F
OGALLALA       CLOUDY    47  41  77 N16       30.00F
NORTH PLATTE   CLOUDY    48  39  71 N24G31    29.97F
MCCOOK         CLOUDY    45  42  89 N25       29.93F
LEXINGTON      LGT RAIN  44  42  89 N20G25    29.93F
STAPLETON        N/A     44  40  87 CALM        N/A
GOTHENBURG       N/A     44  39  84 N12         N/A
CALLAWAY         N/A     42  40  93 NE16        N/A
$$

...OBSERVATIONS IN CENTRAL LINCOLN COUNTY AREA...

CITY           SKY/WX    TMP DP  RH WIND       PRES   REMARKS
N.P. AIRPORT   CLOUDY    48  39  71 N24G31    29.97F
N.P. DOWNTOWN    N/A     46  40  80 N12G23      N/A
N.P. SOUTHEAST   N/A     47  39  75 N10G18      N/A
N.P. HILLCREST   N/A     47  41  79 NE21G30     N/A
$$

...SOME OBSERVATIONS FROM AROUND THE REGION...

CITY           SKY/WX    TMP DP  RH WIND       PRES   REMARKS
DENVER         PTSUNNY   46  35  65 N17       30.04F
LIMON          CLOUDY    42  38  85 N28       30.00F
ASPEN          MOSUNNY   46  24  42 NW14      30.11F
LARAMIE        MOSUNNY   43  27  53 NW12G21   30.08F
CASPER         MOSUNNY   53  26  35 W13       30.07F
CHEYENNE       CLOUDY    48  29  47 NW14G23   30.05F
SCOTTSBLUFF    CLOUDY    51  39  63 N6        30.04F
GRAND ISLAND   LGT RAIN  41  41 100 NE20G32   29.91F FOG
OMAHA          RAIN      43  38  82 NE14G23   29.93R
SIOUX FALLS    CLOUDY    49  41  74 E18       30.09F
PIERRE         CLOUDY    59  34  39 VRB7      30.05F
RAPID CITY     MOSUNNY   52  42  69 N5        30.05F
BISMARCK       PTSUNNY   61  40  45 S14       30.04F
KANSAS CITY    CLOUDY    52  50  93 E18       29.73F
HILL CITY      LGT RAIN  45  42  89 N23G39    29.87F FOG
WICHITA        CLOUDY    57  56  96 S14       29.60F
DODGE CITY     RAIN      42  40  92 N32G43    29.77F FOG
OKLAHOMA CITY  LGT RAIN  54  51  90 W12       29.71R
DALLAS         MOSUNNY   80  49  33 S23G30    29.70F
AMARILLO       LGT RAIN  41  39  93 N32G41    29.88S
$$




USA.gov is the U.S. government's official web portal to all federal, state and local government web resources and services.